Location: ?
(35.2180°N, 139.6392°E)
Time: 10:32:04
(UTC+00:00)

Cosmos 1470 - Pass Details

Date: 05 August 2024
Orbit: 480 x 498 km, 82.5° (Epoch: 14 September)

Event Time Altitude Azimuth Distance (km) Brightness Sun altitude
Exits shadow 17:17:21 35° 16° (NNE) 834 4.1 -27.1°
Drops below altitude 10° 17:19:38 10° 10° (N) 1,721 6.1 -26.8°
Sets 17:21:47 0° 9° (N) 2,613 7.1 -26.5°
